Regional Weather Roundup
Issued by NWS Wilmington, NC

Home | Current Version | Previous Version | Text Only | Print | Product List | Glossary On
Versions: 1 2 3 4 5 6 7 8 9 10 11 12 13 14 15 16 17 18 19 20 21 22 23 24 25 26 27
000
ASUS42 KILM 260913
RWRILM
RWRILM
REGIONAL HOURLY WEATHER ROUNDUP
NATIONAL WEATHER SERVICE WILMINGTON NC
500 AM EDT SUN MAR 26 2017

NOTE: "FAIR" INDICATES FEW OR NO CLOUDS BELOW 12,000 FEET WITH NO
SIGNIFICANT WEATHER AND/OR OBSTRUCTIONS TO VISIBILITY.

...............WFO WILMINGTON COUNTY WARNING AREA...............

......COASTAL NC AND SC COUNTIES......

CITY           SKY/WX    TMP DP  RH WIND       PRES   REMARKS
WILMINGTON     MOCLDY    54  54 100 CALM      30.21R
N MYRTLE BEACH CLOUDY    62  58  86 CALM      30.19S
MYRTLE BEACH   MOCLDY    62  57  83 S3        30.20S

......INLAND NC AND SC COUNTIES.......

CITY           SKY/WX    TMP DP  RH WIND       PRES   REMARKS
LUMBERTON      CLEAR     51  50  96 CALM      30.19S
ELIZABETHTOWN  CLEAR     52  52 100 CALM      30.20S
WHITEVILLE     CLEAR     53  52  95 CALM      30.19S
FLORENCE       CLOUDY    57  55  93 CALM      30.18F
DARLINGTON     CLOUDY    55  53  93 CALM      30.19S
KINGSTREE      MOCLDY    52  50  93 CALM      30.18S
HARTSVILLE     MOCLDY    55  54  94 CALM      30.17F
BENNETTSVILLE  MOCLDY    54  54 100 CALM      30.19S
CONWAY         FAIR      48  46  93 CALM      30.19S
GEORGETOWN     FAIR      52  52 100 SE3       30.18F
MARION         FAIR      52  50  93 CALM      30.19R

....................REST OF NORTH CAROLINA......................

.........EASTERN NC.........

CITY           SKY/WX    TMP DP  RH WIND       PRES   REMARKS
CAPE HATTERAS  CLOUDY    60  55  83 CALM      30.23S
JACKSONVILLE   MOCLDY    49  48  97 CALM      30.22S FOG
MOREHEAD CITY  CLOUDY    60  56  86 CALM      30.22S
KENANSVILLE    FOG       50  50 100 CALM      30.22S VSB 3/4
NEW BERN       FOG       49  49 100 CALM      30.23S VSB 3/4
ELIZABETH CITY CLOUDY    52  51  97 CALM      30.24R

.........CENTRAL NC.........

CITY           SKY/WX    TMP DP  RH WIND       PRES   REMARKS
RALEIGH DURHAM PTCLDY    56  51  84 CALM      30.20S
ROCKY MOUNT    CLEAR     48  48 100 CALM      30.21S
ROANOKE RAPIDS NOT AVBL
FAYETTEVILLE   CLEAR     54  52  93 CALM      30.19S
HOFFMAN        PTCLDY    49  48  97 CALM      30.19S

.........WESTERN NC.........

CITY           SKY/WX    TMP DP  RH WIND       PRES   REMARKS
CHARLOTTE      CLOUDY    55  51  86 SE5       30.16F
GREENSBORO     MOCLDY    56  53  90 S5        30.17F
HICKORY        NOT AVBL
BOONE          NOT AVBL
ASHEVILLE      NOT AVBL

.....................REST OF SOUTH CAROLINA.....................

.........EASTERN SC.........

CITY           SKY/WX    TMP DP  RH WIND       PRES   REMARKS
CHARLESTON     MOCLDY    57  54  89 CALM      30.17S
BEAUFORT MCAS  PTCLDY    55  54  96 CALM      30.16F
HILTON HEAD    CLEAR     61  59  94 SE3       30.17S

.........CENTRAL SC.........

CITY           SKY/WX    TMP DP  RH WIND       PRES   REMARKS
COLUMBIA       MOCLDY    58  53  84 CALM      30.15F
ORANGEBURG     PTCLDY    54  53  97 CALM      30.17F
SUMTER SHAW    PTCLDY    54  52  92 CALM      30.15F

.........WESTERN SC.........

CITY           SKY/WX    TMP DP  RH WIND       PRES   REMARKS
GREENVILLE     NOT AVBL
ROCK HILL      PTCLDY    56  53  90 S3        30.16F
ANDERSON       CLOUDY    58  52  80 SE6       30.12F
CLEMSON        NOT AVBL
GREENWOOD      CLOUDY    54  50  86 SE3       30.15F


...................COASTAL AND OFFSHORE REPORTS..................

................LOCAL PIERS AND NC RESERVE................


STATION/POSITION TIME  SKY/WX   TEMP    WIND        PRES    VSBY
                                AIR SEA DIR/SP/G
                 (UTC)          (F)     (DEG/KT/KT) (MB)    (MI)
JOHNY MRCER PIER 0848            61 57  160/  7/  7 1021.5F
NC RESRV MASNBRO 0745            59     240/  2     1022.0
OCEAN CREST PIER NOT AVBL
SPRINGMAID  PIER 0836                               1021.5S


................COASTAL AND OFFSHORE BUOYS................


STATION/POSITION TIME  SKY/WX   TEMP    WIND        PRES    VSBY
                                AIR SEA DIR/SP/G
                 (UTC)          (F)     (DEG/KT/KT) (MB)    (MI)
DIMNDSHOAL 41025 0850            68 75  170/ 14/ 17 1023.7S
WVE H/P(F/S)=  3/ 5 SWL H/P/D(F/S/D)=  2/220/ 8

CAPE LOOKOUT     0900            66     200/  6/  7 1023.1R
ONSLOW BAY 41036 NOT AVBL
ONSLOW BAY 41064 0808            67     160/ 10/ 14 1023.0F
ONSLOW BAY 41159 0843               65                N/A
WVE H/P(F/S)=  3/ 8

MASNBO INL 41110 0859               58                N/A
WVE H/P(F/S)=  3/ 7

WILM HARBR 41108 0847               58                N/A
WVE H/P(F/S)=  3/ 6

27SE WRITB 41037 0808            66 64  170/  8/ 10 1021.9F
FRYING PAN 41013 0900            71 75  160/ 14/ 17 1022.5
SUNST NRSH 41024 NOT AVBL
CAPRS NRSH 41029 0808            62     190/  2/  6 1021.6F
EDISTO     41004 0850            71 72  140/ 16/ 17 1021.1F
WVE H/P(F/S)=  4/ 8 SWL H/P/D(F/S/D)=  3/140/ 8



..........OFFSHORE BUOYS BEYOND 100 NM OFFSHORE...........
.....IN A TRIANGLE---HAT TO BERMUDA TO BAHAMAS TO HAT.....


STATION/POSITION TIME  SKY/WX   TEMP    WIND        PRES    VSBY
                                AIR SEA DIR/SP/G
                 (UTC)          (F)     (DEG/KT/KT) (MB)    (MI)
150E HAT   41001 NOT AVBL
W BERMUDA  41048 0850            65 68   90/ 10/ 14 1024.7F
WVE H/P(F/S)=  4/ 9 SWL H/P/D(F/S/D)=  3/140/ 9

ATLANTIC S 41049 0850            70 71   80/ 21/ 23 1019.6F
WVE H/P(F/S)= 10/ 9 SWL H/P/D(F/S/D)=  3/120/17

E BAHAMAS  41046 NOT AVBL
NE BAHAMAS 41047 0900            70 72   50/ 21/ 27 1018.5
120E CANVRL41010 NOT AVBL

END




USA.gov is the U.S. government's official web portal to all federal, state and local government web resources and services.